| time (UTC) | temp C | wind direction | speed KPH | gust KPH | rain 1hr cm | rain 24hr cm | rain mn cm | humidity % | barometer mb |
| 20260506220024 | 7 | 0 | 0.0 | 0.0 | 0.48 | 1.96 | 1.96 | 99 | 1004.7 |
| 20260506210004 | 8 | 360 | 0.0 | 3.2 | 0.03 | 1.78 | 1.47 | 99 | 1004.0 |
| 20260506200003 | 11 | 360 | 0.0 | 3.2 | 0.48 | 1.78 | 1.45 | 99 | 1003.7 |
| 20260506190024 | 12 | 346 | 3.2 | 3.2 | 0.41 | 1.30 | 0.97 | 99 | 1003.9 |
| 20260506180004 | 13 | 43 | 3.2 | 8.0 | 0.13 | 0.89 | 0.56 | 99 | 1004.5 |
| 20260506170004 | 13 | 0 | 0.0 | 0.0 | 0.13 | 0.76 | 0.43 | 99 | 1004.7 |
| 20260506160003 | 12 | 0 | 0.0 | 0.0 | 0.10 | 0.64 | 0.30 | 99 | 1005.7 |
| 20260506150024 | 12 | 0 | 0.0 | 0.0 | 0.05 | 0.53 | 0.20 | 99 | 1006.4 |
| 20260506140004 | 11 | 0 | 0.0 | 0.0 | 0.03 | 0.48 | 0.15 | 99 | 1006.5 |
| 20260506130004 | 12 | 360 | 0.0 | 3.2 | 0.00 | 0.46 | 0.13 | 99 | 1006.8 |
| 20260506120003 | 11 | 360 | 0.0 | 3.2 | 0.00 | 0.46 | 0.13 | 99 | 1006.9 |
| 20260506110003 | 10 | 0 | 0.0 | 0.0 | 0.00 | 0.46 | 0.13 | 99 | 1007.4 |
| 20260506100003 | 10 | 0 | 0.0 | 0.0 | 0.00 | 0.46 | 0.13 | 99 | 1007.4 |
| 20260506090004 | 10 | 0 | 0.0 | 0.0 | 0.00 | 0.46 | 0.13 | 99 | 1007.9 |
| 20260506040003 | 16 | 187 | 11.3 | 20.9 | 0.00 | 0.33 | 0.00 | 82 | 1006.4 |
| 20260506030003 | 16 | 202 | 0.0 | 4.8 | 0.00 | 0.33 | 0.33 | 85 | 1006.4 |
| 20260506020003 | 16 | 142 | 4.8 | 17.7 | 0.00 | 0.33 | 0.33 | 85 | 1006.0 |
| 20260506010003 | 16 | 148 | 8.0 | 17.7 | 0.00 | 0.33 | 0.33 | 87 | 1006.2 |
| 20260506000003 | 16 | 181 | 3.2 | 14.5 | 0.00 | 0.33 | 0.33 | 90 | 1005.5 |
| 20260505230024 | 15 | 180 | 4.8 | 19.3 | 0.00 | 0.33 | 0.33 | 92 | 1005.2 |